National Weather Service Hourly Weather Roundup
NOAA NWS Hourly Roundups by Site
NOAA NWS Hourly Roundups by Site
Regional Weather Roundup for Sacramento, CA

To Select Another Site Choose from List

Select Site:  

000
ASUS46 KSTO 181415
RWRCA

NORTHERN AND CENTRAL CA REGIONAL WEATHER ROUNDUP
NATIONAL WEATHER SERVICE SACRAMENTO CA
700 AM PDT THU JUL 18 2019

NOTE: FAIR INDICATES FEW OR NO CLOUDS BELOW 12,000 FEET WITH NO
SIGNIFICANT WEATHER AND/OR OBSTRUCTIONS TO VISIBILITY.

CAZ001-003-181500-
NORTHWEST AREA

CITY           SKY/WX    TMP DP  RH WIND       PRES   REMARKS
CRESCENT CITY  FOG       56  56 100 N6        29.98S VSB 1/4
UKIAH          CLEAR     61  52  72 CALM      29.89S
$$

CAZ006-505>513-181500-
BAY AREA

CITY           SKY/WX    TMP DP  RH WIND       PRES   REMARKS
SANTA ROSA     CLEAR     55  53  93 S3        29.91R
SAN RAFAEL     N/A      MM  MM  MM MISG
NAPA           MOCLDY    59  56  89 S9        29.91R
CONCORD        SUNNY     65  54  67 SW14      29.89R
OAKLAND CITY   N/A       58  MM  MM MISG
OAKLAND        CLOUDY    61  56  83 N6        29.93R
SAN FRAN CITY  N/A       56  MM  96 MISG
SAN FRAN ARPT  PTCLDY    59  54  83 W6        29.92R
LIVERMORE      SUNNY     62  55  77 S3        29.90R
HAYWARD        PTCLDY    60  55  83 N3        29.92R
REDWOOD CITY   N/A       60  MM  85 MISG
MOFFETT ARPT   CLEAR     62  54  74 CALM      29.93R
SAN JOSE ARPT  MOCLDY    58  55  90 SE12      29.93R
$$
CAZ034-037-514>518-181500-
CENTRAL COAST

CITY           SKY/WX    TMP DP  RH WIND       PRES   REMARKS
WATSONVILLE    CLOUDY    56  54  93 CALM      29.97R
SALINAS        CLOUDY    56  53  90 SE5       29.97R
MONTEREY       CLOUDY    58  52  80 CALM      29.97R
SAN LUIS OBISP CLOUDY    57  54  89 CALM      29.98R
SANTA MARIA    CLOUDY    59  57  93 CALM      29.98R FOG
$$
CAZ015-016-181500-
NORTHERN SACRAMENTO VALLEY

CITY           SKY/WX    TMP DP  RH WIND       PRES   REMARKS
REDDING        SUNNY     74  59  59 NW5       29.86R
RED BLUFF      SUNNY     76  60  57 S5        29.87R
OROVILLE       SUNNY     75  55  49 E7        29.88R
$$
CAZ016>018-181500-
SOUTHERN SACRAMENTO VALLEY

CITY           SKY/WX    TMP DP  RH WIND       PRES   REMARKS
AUBURN         SUNNY     70  55  60 CALM      29.92R
LINCOLN        FAIR      68  54  60 S8        29.86R
MARYSVILLE     SUNNY     68  56  65 SE8       29.86R
PLACERVILLE    FAIR      70  52  52 SE6       29.99R
SAC INTL ARPT  MOSUNNY   64  55  72 S15       29.84S
MATHER AIRPORT SUNNY     66  55  68 SW8       29.86R
DOWNTOWN SAC   N/A       67  MM  MM MISG
SAC EXEC ARPT  SUNNY     63  56  78 SW9       29.86R
VACAVILLE      SUNNY     65  56  72 SW8       29.85R
TRAVIS AFB     SUNNY     60  54  81 SW23G29   29.86R
$$
CAZ019>021-181500-
SAN JOAQUIN VALLEY

CITY           SKY/WX    TMP DP  RH WIND       PRES   REMARKS
STOCKTON       SUNNY     69  57  65 CALM      29.86R
MODESTO        SUNNY     66  59  78 E3        29.86R
MERCED         SUNNY     65  57  75 SE3       29.87R
LEMOORE        SUNNY     66  49  54 W3        29.89R
FRESNO         MOSUNNY   71  55  56 E3        29.90R
PORTERVILLE    SUNNY     68  46  45 SE5       29.91R
BAKERSFIELD    SUNNY     75  37  25 CALM      29.90R
$$
CAZ011-012-071-181500-
NORTHERN MOUNTAINS

CITY           SKY/WX    TMP DP  RH WIND       PRES   REMARKS
YREKA          SUNNY     64  53  67 N9        30.02R
MOUNT SHASTA   SUNNY     59  52  77 CALM      30.03S
ALTURAS        SUNNY     58  45  62 CALM      30.08R
$$
CAZ011-012-071-181500-
SIERRA NEVADA MTNS

CITY           SKY/WX    TMP DP  RH WIND       PRES   REMARKS
BLUE CANYON    SUNNY     63  50  62 SE6       30.13S
TRUCKEE        SUNNY     43  41  93 CALM      30.18R
TAHOE VLY ARPT SUNNY     45  41  86 S3        30.17S
MAMMOTH LAKES  FAIR      49  38  66 CALM      30.24S
$$


 

View Past Reports for Sacramento, CA.

Products Courtesy of NOAA-NWS
NWS Information Parsing Script by Ken True at Saratoga Weather - Script by SE Lincoln Weather.

powered by Cumulus v1.9.3 (1059)
Ambient Weather VWS v14.00
Top Contact Website Map Copyright © 2007 - 2019 Foresthillweather.com Never base important decisions on this or any weather information obtained from the Internet